Weather History for Colby, KS

Change the Weather History Date:

Friday, October 19, 2012

  Actual Average (KGLD) Record (KGLD)
Temperature  
Mean Temperature 52 °F 51 °F  
Max Temperature 69 °F 65 °F 92 °F (2003)
Min Temperature 35 °F 36 °F 19 °F (1976)
Degree Days  
Heating Degree Days 13 14  
Month to date heating degree days 214  
Since 1 July heating degree days 338  
Cooling Degree Days 0 0  
Month to date cooling degree days 5  
Year to date cooling degree days 938  
Growing Degree Days 2 (Base 50)    
Moisture  
Dew Point 25 °F    
Average Humidity 39    
Maximum Humidity 57    
Minimum Humidity 24    
Precipitation  
Precipitation 0.00 in 0.05 in 3.22 in (1908)
Month to date precipitation 0.89  
Year to date precipitation 18.01  
Snow  
Snow - 0.10 in - ()
Month to date snowfall 1.0  
Since 1 July snowfall 1.4  
Since 1 September snowfall 1.4  
Snow Depth -    
Sea Level Pressure  
Sea Level Pressure 29.93 in    
Wind  
Wind Speed 11 mph ()    
Max Wind Speed 21 mph    
Max Gust Speed 28 mph    
Visibility 9.9 miles    
Events      
T = Trace of Precipitation, MM = Missing Value Source: Averaged Metar Reports

Daily Weather History Graph

Daily Weather History Graph

Search for Another Location

Airport:

Trip Planner

Search our weather history database for the weather conditions in past years. The results will help you decide how hot, cold, wet, or windy it might be!

Date:

Astronomy

Oct. 19, 2012 Rise Set
Actual Time 7:58 AM CDT 6:58 PM CDT
Civil Twilight 7:31 AM CDT 7:25 PM CDT
Nautical Twilight 7:00 AM CDT 7:57 PM CDT
Astronomical Twilight 6:29 AM CDT 8:28 PM CDT
Moon 12:42 PM CDT (10/19) 10:40 PM CDT (10/19)
Length of Visible Light 11h 54m
Length of Day
10h 59m
Waxing Crescent, 24% of the Moon is Illuminated
Oct 19
Waxing Crescent
Oct 21
First Quarter
Oct 29
Full
Nov 6
Last Quarter
Nov 13
New

Hourly Weather History & Observations

Time (CDT) Temp. Windchill Dew Point Humidity Pressure Visibility Wind Dir Wind Speed Gust Speed Precip Events Conditions
1:15 AM 41.0 °F 34.3 °F 15.8 °F 36% 29.99 in 10.0 mi NW 11.5 mph - N/A   Clear
1:35 AM 37.4 °F 29.8 °F 15.8 °F 41% 29.98 in 10.0 mi NW 11.5 mph - N/A   Clear
1:55 AM 35.6 °F 27.1 °F 15.8 °F 44% 29.99 in 10.0 mi WNW 12.7 mph - N/A   Clear
2:15 AM 37.4 °F 29.3 °F 17.6 °F 45% 30.00 in 10.0 mi WNW 12.7 mph - N/A   Clear
2:35 AM 35.6 °F 27.1 °F 15.8 °F 44% 30.00 in 10.0 mi West 12.7 mph - N/A   Clear
2:55 AM 35.6 °F 26.6 °F 17.6 °F 48% 29.99 in 10.0 mi WNW 13.8 mph - N/A   Clear
3:15 AM 35.6 °F 26.2 °F 17.6 °F 48% 30.00 in 10.0 mi WNW 15.0 mph - N/A   Clear
3:55 AM 35.6 °F 27.1 °F 19.4 °F 52% 30.00 in 10.0 mi WNW 12.7 mph - N/A   Clear
4:15 AM 35.6 °F 26.6 °F 19.4 °F 52% 29.99 in 10.0 mi West 13.8 mph - N/A   Clear
4:55 AM 37.4 °F 28.2 °F 19.4 °F 48% 29.99 in 10.0 mi WNW 16.1 mph - N/A   Clear
5:15 AM 37.4 °F 27.5 °F 19.4 °F 48% 29.99 in 10.0 mi WNW 18.4 mph - N/A   Clear
5:35 AM 37.4 °F 27.5 °F 19.4 °F 48% 29.99 in 10.0 mi WNW 18.4 mph 21.9 mph N/A   Clear
5:55 AM 39.2 °F 30.2 °F 19.4 °F 45% 29.99 in 10.0 mi WNW 17.3 mph - N/A   Clear
6:15 AM 37.4 °F 28.2 °F 19.4 °F 48% 30.00 in 10.0 mi WNW 16.1 mph - N/A   Clear
6:35 AM 37.4 °F 28.2 °F 19.4 °F 48% 29.99 in 10.0 mi WNW 16.1 mph - N/A   Clear
6:55 AM 37.4 °F 28.9 °F 21.2 °F 52% 30.00 in 10.0 mi WNW 13.8 mph - N/A   Clear
7:15 AM 37.4 °F 30.3 °F 21.2 °F 52% 30.01 in 10.0 mi WNW 10.4 mph - N/A   Clear
7:35 AM 37.4 °F 29.8 °F 21.2 °F 52% 30.00 in 10.0 mi WNW 11.5 mph - N/A   Clear
7:55 AM 39.2 °F 31.2 °F 21.2 °F 49% 30.00 in 10.0 mi WNW 13.8 mph 19.6 mph N/A   Clear
8:15 AM 41.0 °F 33.5 °F 21.2 °F 45% 30.00 in 10.0 mi WNW 13.8 mph - N/A   Clear
8:35 AM 41.0 °F 33.1 °F 21.2 °F 45% 30.01 in 10.0 mi West 15.0 mph - N/A   Clear
8:55 AM 42.8 °F 35.4 °F 23.0 °F 46% 30.01 in 10.0 mi West 15.0 mph - N/A   Clear
9:15 AM 44.6 °F 37.4 °F 23.0 °F 43% 30.01 in 10.0 mi West 16.1 mph - N/A   Clear
9:35 AM 46.4 °F 39.5 °F 23.0 °F 40% 30.01 in 10.0 mi WNW 17.3 mph - N/A   Clear
9:55 AM 50.0 °F - 23.0 °F 35% 30.01 in 10.0 mi WNW 13.8 mph - N/A   Clear
10:15 AM 51.8 °F - 23.0 °F 33% 30.01 in 10.0 mi WNW 19.6 mph 25.3 mph N/A   Clear
10:35 AM 51.8 °F - 23.0 °F 33% 30.01 in 10.0 mi WNW 19.6 mph 26.5 mph N/A   Clear
10:55 AM 53.6 °F - 23.0 °F 30% 30.00 in 10.0 mi NW 20.7 mph 27.6 mph N/A   Clear
11:15 AM 55.4 °F - 24.8 °F 31% 30.00 in 10.0 mi NW 18.4 mph 24.2 mph N/A   Clear
11:35 AM 55.4 °F - 26.6 °F 33% 30.00 in 10.0 mi WNW 13.8 mph - N/A   Clear
11:55 AM 57.2 °F - 26.6 °F 31% 29.99 in 10.0 mi NW 13.8 mph 19.6 mph N/A   Clear
12:35 PM 60.8 °F - 28.4 °F 29% 29.97 in 10.0 mi WNW 12.7 mph - N/A   Clear
12:55 PM 62.6 °F - 28.4 °F 27% 29.96 in 10.0 mi WNW 15.0 mph 20.7 mph N/A   Clear
1:15 PM 62.6 °F - 28.4 °F 27% 29.95 in 10.0 mi West 11.5 mph 19.6 mph N/A   Clear
1:35 PM 64.4 °F - 28.4 °F 26% 29.93 in 10.0 mi NW 9.2 mph 19.6 mph N/A   Clear
2:15 PM 64.4 °F - 28.4 °F 26% 29.91 in 10.0 mi NW 11.5 mph 19.6 mph N/A   Clear
2:35 PM 66.2 °F - 30.2 °F 26% 29.89 in 10.0 mi NW 9.2 mph 18.4 mph N/A   Clear
2:55 PM 68.0 °F - 30.2 °F 24% 29.88 in 10.0 mi West 12.7 mph 17.3 mph N/A   Clear
3:15 PM 68.0 °F - 30.2 °F 24% 29.87 in 10.0 mi WNW 11.5 mph - N/A   Clear
4:15 PM 69.8 °F - 32.0 °F 25% 29.85 in 10.0 mi WNW 11.5 mph 16.1 mph N/A   Clear
4:35 PM 69.8 °F - 32.0 °F 25% 29.85 in 10.0 mi NW 10.4 mph 19.6 mph N/A   Clear
4:55 PM 69.8 °F - 32.0 °F 25% 29.84 in 10.0 mi WNW 9.2 mph - N/A   Clear
5:15 PM 69.8 °F - 32.0 °F 25% 29.84 in 10.0 mi NW 6.9 mph - N/A   Clear
5:55 PM 69.8 °F - 32.0 °F 25% 29.83 in 10.0 mi NNW 3.5 mph - N/A   Clear
6:15 PM 69.8 °F - 32.0 °F 25% 29.82 in 10.0 mi Calm Calm - N/A   Clear
6:55 PM 64.4 °F - 30.2 °F 28% 29.82 in 10.0 mi Calm Calm - N/A   Clear
7:15 PM 59.0 °F - 30.2 °F 34% 29.82 in 7.0 mi SE 4.6 mph - N/A   Clear
7:55 PM 55.4 °F - 30.2 °F 38% 29.82 in 10.0 mi Calm Calm - N/A   Clear
8:15 PM 53.6 °F - 30.2 °F 41% 29.82 in 10.0 mi SSE 4.6 mph - N/A   Clear
8:35 PM 53.6 °F - 30.2 °F 41% 29.82 in 10.0 mi South 3.5 mph - N/A   Clear
9:15 PM 51.8 °F - 30.2 °F 44% 29.81 in 10.0 mi SSW 5.8 mph - N/A   Clear
9:35 PM 50.0 °F - 30.2 °F 47% 29.82 in 10.0 mi SW 4.6 mph - N/A   Clear
9:55 PM 50.0 °F - 30.2 °F 47% 29.82 in 10.0 mi SW 5.8 mph - N/A   Clear
10:15 PM 48.2 °F - 30.2 °F 50% 29.82 in 10.0 mi West 4.6 mph - N/A   Clear
10:55 PM 48.2 °F - 30.2 °F 50% 29.82 in 10.0 mi WSW 3.5 mph - N/A   Clear
11:15 PM 46.4 °F 42.9 °F 30.2 °F 53% 29.81 in 10.0 mi SW 6.9 mph - N/A   Clear
11:35 PM 44.6 °F 42.2 °F 30.2 °F 57% 29.81 in 10.0 mi SW 4.6 mph - N/A   Clear
11:55 PM 46.4 °F 42.9 °F 30.2 °F 53% 29.81 in 10.0 mi SSW 6.9 mph - N/A   Clear